Lid_Strength_Index
5 5 6 6 5 5 7 9 13 7 6 12 11 13 14 12 12 11 13 13 13 14 14 15 15 14 12 11 12 14 12 14 15 12 8 7 9 11 11 15 15 13 14 15
5 5 5 5 5 5 8 12 12 7 8 15 15 14 14 12 13 12 13 13 12 12 14 16 14 14 11 11 12 14 13 15 19 16 11 9 12 10 10 10 11 14 17 15
5 5 5 5 5 5 7 11 15 12 10 11 14 15 14 14 11 11 11 11 10 12 13 12 14 14 11 10 11 9 10 14 16 19 16 14 16 14 14 14 17 15 14 12
6 6 5 5 4 4 7 10 13 12 15 13 12 12 12 13 12 9 8 10 9 10 13 12 12 11 10 9 8 9 10 15 13 13 13 14 15 16 15 16 15 17 13 12
5 5 5 5 4 4 7 11 11 10 11 11 11 9 10 10 9 8 9 9 8 8 10 10 11 9 9 10 8 9 8 13 12 15 13 13 15 14 15 15 15 15 15 14
5 5 5 4 4 4 7 6 7 8 9 9 9 9 8 8 7 7 6 7 8 9 8 6 6 6 6 7 9 9 9 11 13 16 13 12 16 15 14 14 14 15 16 13
4 4 4 4 4 3 5 6 5 7 9 8 8 7 7 8 7 8 6 6 8 6 4 4 5 6 6 7 7 7 10 11 12 15 14 20 13 10 11 12 13 12 12 11
4 4 4 3 3 2 2 1 3 6 9 7 7 7 7 6 6 7 7 6 5 3 5 9 11 11 10 10 8 8 8 11 14 16 16 14 13 11 11 12 13 10 11 9
4 4 4 3 2 1 -0 -0 -0 4 7 7 5 7 6 8 8 8 7 4 3 4 7 10 14 15 13 14 12 9 9 9 13 14 18 19 12 10 8 7 14 9 8 8
4 4 3 2 1 -1 -1 0 -1 3 7 4 5 7 8 6 7 8 7 7 6 5 9 12 13 14 11 15 15 14 13 13 15 15 16 14 12 12 9 15 13 9 7 7
4 3 2 0 -1 -2 -2 0 -1 2 5 4 4 4 6 6 6 9 7 7 7 8 11 11 12 12 12 13 13 15 17 19 17 17 19 19 12 14 16 11 10 10 9 8
3 2 0 -1 -2 -2 -2 2 -1 -1 4 4 1 2 2 4 5 6 5 7 7 6 9 10 9 12 11 13 18 13 18 17 19 19 18 14 13 14 12 11 12 11 10 8
2 1 -1 -2 -2 -2 -1 0 -0 1 4 4 3 5 3 2 4 3 9 6 4 6 4 7 9 12 12 17 17 17 16 15 18 19 15 15 15 13 12 8 10 10 6 6
1 -0 -2 -2 -2 -2 -1 0 -0 1 4 7 6 3 5 3 4 5 5 6 5 5 5 9 11 13 11 15 15 17 17 16 18 18 16 15 14 14 11 7 7 7 6 7
0 -1 -2 -2 -2 -1 -1 -1 0 0 4 8 7 4 5 5 6 7 6 6 7 8 11 12 13 11 12 12 14 18 16 18 20 21 17 17 16 15 13 11 11 10 10 11
0 -2 -2 -2 -2 -1 -0 3 0 -0 1 7 9 5 6 6 7 7 8 8 8 9 10 12 11 10 12 17 19 16 15 14 15 17 15 15 15 15 14 14 13 12 12 12
-0 -2 -2 -2 -1 -1 2 4 2 0 0 6 9 9 7 6 6 8 9 8 9 9 11 12 12 12 11 16 20 15 14 14 14 14 14 16 15 17 15 14 14 12 13 13
-0 -2 -1 -1 -2 -1 2 1 0 1 3 5 11 11 9 7 9 10 7 9 10 10 11 11 13 12 14 19 15 14 13 13 14 14 14 15 15 15 15 15 15 15 16 14
1 -0 -1 -0 1 3 2 0 1 1 4 9 10 14 14 7 8 8 7 8 12 9 12 13 13 15 19 16 14 14 14 14 15 13 14 14 15 15 15 15 15 16 16 15
2 0 3 4 2 1 2 3 5 6 6 7 11 10 13 10 10 9 9 9 12 14 13 11 15 16 14 13 13 13 13 13 13 15 15 15 16 15 15 15 15 15 15 15
3 4 4 2 1 3 5 8 9 9 10 9 10 10 13 8 12 11 9 12 12 17 15 15 16 18 15 13 13 12 12 12 13 13 13 13 14 15 15 15 14 14 15 15
4 4 2 3 5 7 10 11 10 11 13 9 11 11 10 10 8 10 10 13 13 18 12 15 18 15 14 14 14 13 13 13 14 14 14 14 14 14 14 14 14 14 14 14
5 6 8 7 9 13 14 16 13 12 10 9 10 12 10 9 8 10 11 15 16 12 16 18 16 14 13 14 13 14 13 14 14 14 14 14 14 14 14 14 14 14 14 14
10 10 14 11 13 12 11 12 11 9 10 11 11 11 11 10 11 11 15 14 13 18 19 19 14 13 14 13 13 14 14 14 15 15 15 15 15 15 14 14 14 14 14 14
12 11 15 13 10 9 9 9 10 9 9 11 11 10 11 11 12 12 13 16 18 17 18 14 12 12 14 13 13 14 15 15 15 15 15 15 14 15 15 14 14 14 14 14
11 12 13 11 11 11 10 10 10 9 10 10 10 12 13 15 13 15 17 17 19 16 14 12 12 12 12 13 13 13 13 14 14 14 14 14 14 14 14 14 14 14 14 14
13 13 11 12 12 12 11 11 11 9 10 12 12 15 16 13 15 16 14 16 14 13 12 11 11 12 12 13 13 13 13 14 14 14 14 14 13 13 14 15 14 14 13 14